星链-3912 (STARLINK-3912 )

导读

STARLINK-3912是美国SpaceX星链(Starlink)项目的卫星,于2022年5月6日发射升空,归属美国所有。它属于星链低轨互联网星座的组成部分,主要为全球提供宽带互联网接入服务,依靠多星组网实现全球覆盖,弥补传统网络服务的盲区,推进全球网络连通性建设,是星链部署进程中重要的组网卫星。

Basic Information
目录编号:
52502
目录名称:
STARLINK-3912
国际标识:
2022-049BD
轨道中心:
EARTH
卫星名称:
星链-3912
卫星全名:
星链-3912 (STARLINK-3912 )
卫星状态:
在轨 (已飞行1503 天)
发射日期:
2022-05-06 UTC
国别 :
美国 (US)
星等 :
--
Orbit Information
数据来源 国际轨道数据 AOE轨道数据
星历时间 2026-06-17T00:20:41+0800
22小时前
查看轨道信息
2026-06-13T08:00:00+0800
4天前
查看轨道信息
半长轴 6917.895km 6917.81km
偏心率 0.0001339 0.0001626
轨道倾角 53.161° 53.160°
近地点辐角 91.276° 100.195°
升交点赤经 314.665° 331.214°
平近点角 268.838° 54.339°
近地点 538.831km 538.548km
远地点 540.685km 540.798km
周期 95.438分钟 95.436分钟
每日圈数 15.088355 15.088633
Detailed Information
固有亮度:
5
最大亮度:
2.5
卫星平台:
Starlink v1.5
覆盖范围:
全球
运营商:
太空探索技术公司
运营商所在国:
美国
制造商(研发单位):
太空探索技术公司
制造商所在国:
美国
使用方式:
暂无
Satellite Introduction
星链(Starlink)计划是由太空探索技术公司(SpaceX)提出的一个巨型低轨卫星互联网星座项目,计划在2019年至2024年间在太空搭建由约1.2万颗卫星组成的“星链”网络,其中1584颗将部署在地球上空550千米处的近地轨道,并从2020年开始工作。该卫星仍在工作。
2D Orbit Map
3D Orbit Map
Orbit Altitude Analysis Chart
Orbit Inclination Analysis Chart
Orbit Comprehensive Analysis Chart
View Comprehensive Chart